Olive Hill, KY (41164)

10:42 AM EST on February 13, 2016 (GMT -0500)
Green | | Change Station
CLOSE
Current Station
Personal Weather Station
Location: Olive Hill, KY
Elevation: 883 ft
Nearby Weather Stations

Elev 883 ft 38.19 °N, 83.08 °W | Updated 14 seconds ago

Overcast
Overcast
19.0 °F
Feels Like 19 °F
N
0.0
Wind Variable Wind from North
Gusts 0.0 mph

Today
High -- | Low -- °F
--% Chance of Precip.
Yesterday
High -- | Low -- °F
Precip. -- in
Pressure 30.52 in
Visibility 9.0 miles
Clouds Few 2700 ft
Mostly Cloudy 3500 ft
Overcast 4500 ft
Windchill 19 °F
Dew Point -11 °F
Humidity 25%
Rainfall Not available.
Snow Depth Not available.
7:26 AM 6:08 PM
Waxing Crescent, 31% visible
METAR KHTS 131451Z 32012G19KT 9SM UP FEW027 BKN035 OVC045 M09/M17 A3049 RMK AO2 UPB49SNE17 SLP334 P0000 60000 T10891167 51008
Pressure 30.52 in
Visibility 9.0 miles
Clouds Few 2700 ft
Mostly Cloudy 3500 ft
Overcast 4500 ft
Windchill 19 °F
Dew Point -11 °F
Humidity 25%
Rainfall Not available.
Snow Depth Not available.
7:26 AM 6:08 PM
Waxing Crescent, 31% visible
METAR KHTS 131451Z 32012G19KT 9SM UP FEW027 BKN035 OVC045 M09/M17 A3049 RMK AO2 UPB49SNE17 SLP334 P0000 60000 T10891167 51008

10-Day Weather Forecast

Almanac

Astronomy

Feb. 13, 2016 Rise Set
Actual Time
Civil Twilight
Nautical Twilight
Astronomical Twilight
Moon
Length of Visible Light
Length of Day
Tomorrow will be .
, % of the Moon is Illuminated

Today's Extremes

State Highs State Lows

Community

WunderPhotos

Upload Photos

1,892,587 photos uploaded!

WunderBlog® & News

Nearby

Air Quality

  Air Quality AQ Index Pollutant
Not available.

Snow Depth

Station Depth Elevation

Earthquake Activity

City Distance Mag. Time & Date
Minimum magnitude displayed is 2.5.

Coastal Water Temperatures

Place Temperature

Stations

Nearby Weather Stations

Station Location Temp. Windchill Dew Point Humidity Wind Precip. Elev Updated Type
                   

Watches & Warnings

There are currently no watches in effect.